Погода Обсерватория Федорова

Погода Обсерватория Федорова : погода сейчас, прогноз погоды и архив. Всё, что Вы хотите узнать о погоде Обсерватория Федорова!

Хотите узнать прогноз погоды Обсерватория Федорова? Тогда Вам сюда: Погода Обсерватория Федорова

Поиск расширенной информации на нашем сайте:

Другие новости

Новости СМИ2

Главная страница сайта

Новости сайта

03.07.2017

Напоминаем, что на нашем специализированном сайте Метеоцентр.Азия вы можете получить высокодетализированные автоматические прогнозы погоды по пунктам России, СНГ и мира в авиационном формате (включающие направление и скорость ветра, видимость, явления погоды, количество и форму облачности, нижнюю и верхнюю границу облачности).

Рекомендуем: Здесь Pro Evolution Soccer 2012 cкачать через торрент без регистрации бесплатно без вирусов и смс

Погода Обсерватория Федорова - сегодня

Время (UTC), дата Ветер
(°,м/с) 
Видим.   Явления Облачность Т
(°С)
Тd
(°С)
f(%) Тe
(°С)
Pmin
(гПа)
dP
(гПа)
Po
(мм)
O2
(г/м3)
Тmin Tmax R s Состояние
почвы
09 18.07.17 330 (СЗ) 20000 м    10/10 300 м 
[Sc]
+1 +0.4 96 1013.5  0.6  759  305           
12 18.07.17 090 (В) 20000 м    10/10 300 м 
[Sc]
+1.3 +0.8 96 +2  1014.3  0.7  759  304    +1.4       
15 18.07.17 360 (С) 20000 м    9/9 300 м 
[Sc]
+1.6 +0.9 95 +1  1014.9  0.7  760  304           
18 18.07.17 080 (В) 10 км    10/10 200 м 
[St]
+0.7 +0.6 99 -1  1015.7  0.7  761  306           
21 18.07.17 070 (В) 2000 м  дымка  10/10 50 м 
[St]
+0.3 +0 98 1016.9  1.2  761  306           
00 19.07.17 060 (СВ) 0200 м  туман  ?/?  
+0 -0.3 98 -2    -1.2  762  307           
03 19.07.17 320 (СЗ) 20000 м  в посл. час туман  10/10 300 м 
[Sc]
+0.6 +0.3 98 1019  763  307           
06 19.07.17 050 (СВ) 20000 м  {туман}  10/10 300 м 
[Sc]
+1 +0.9 99 +2  1019.1  0.1  763  306           
09 19.07.17 250 (З) 20000 м    10/10 200 м 
[St]
+1.5 +1.2 98 -1  1019.7  0.6  764  306           
12 19.07.17 250 (З) 0500 м  туман  8/6 300 м средняя, верхняя 
[Sc|Ac trans|Ci fib]
+0.7 +0.4 98 -2  1019.9  0.3  764  307    +2.6       
15 19.07.17 240 (ЮЗ) 20000 м  {туман}  8/3 300 м верхняя 
[Sc|Ci ing]
+0.9 +0.7 99 -3  1019.2  -0.8  763  306           
18 19.07.17 250 (З) 8-10  20000 м  {туман}  10/10 300 м 
[Sc]
+0.8 +0.6 99 -3  1019.3  0.1  763  307           
21 19.07.17 250 (З) 8-10  0500 м  туман  ?/?  
+0.4 +0.2 99 -4  1019.6  0.4  764  307           
00 20.07.17 250 (З) 9-11  10 км  в посл. час туман  10/10 300 м 
[Sc]
+0.7 +0.4 98 -4    -0.1  763  307  +0.4         
03 20.07.17 250 (З) 9-12  0500 м  туман  10/8 300 м средняя 
[Sc|Ac trans]
+1.1 +1 99 -3  1019.3  -0.3  763  306           
06 20.07.17 250 (З) 10-13  20000 м  в посл. час туман  8/3 300 м верхняя 
[Sc|Ci fib]
+2.8 +2.5 98 -1  1018.2  -1  762  304           
09 20.07.17 240 (ЮЗ) 10-12  10 км    10/6 600 м средняя 
[Sc|Ac trans]
+2.5 +2.4 99 -2  1017.5  -0.7  762  304           
12 20.07.17 240 (ЮЗ) 10-13  20000 м    10/8 300 м средняя 
[Sc|Ac trans]
+5.7 +4.3 91 +2  1015.5  -2  760  299    +5.7       
15 20.07.17 220 (ЮЗ) 8-10  20000 м    10/8 300 м средняя 
[Sc|Ac und]
+6.3 +5.3 93 +3  1013.5  -2  759  298           
18 20.07.17 250 (З) 14-16  0500 м  туман{ливн. осадки}  ?/?  
+3.2 +3.1 99 -2  1010.4  -3.1  757  301           
21 20.07.17 260 (З) 12-15  10 км  в посл. час туман  10/10 300 м 
[Sc]
+0.8 +0.5 98 -4  1011  0.6  757  304           
00 21.07.17 250 (З) 10-12  0500 м  туман  ?/?  
+1.1 +0.8 98 -4  1011.8  0.5  758  304  +0.7    0.0    мокрая 
03 21.07.17 250 (З) 9-12  10 км  {туман}  10/10 300 м 
+2 +1.7 98 -2  1011.4  -0.3  757  303           
06 21.07.17 250 (З) 10-12  10 км  {туман}  10/10 300 м 
[St]
+2.2 +2.1 99 -2  1010.6  -0.9  757  302           
09 21.07.17 240 (ЮЗ) 10-11  0500 м  слаб. дождь{туман}  ?/?  
+2.5 +2.2 98 -2  1010.1  -0.4  756  302           
Время (UTC), дата Ветер
(°,м/с) 
Видим.   Явления Облачность Т
(°С)
Тd
(°С)
f(%) Тe
(°С)
Pmin
(гПа)
dP
(гПа)
Po
(мм)
O2
(г/м3)
Тmin Tmax R s Состояние
почвы

Для получения пояснительной информации подведите курсор к названию столбца.

ПОГОДА Обсерватория Федорова - архив

Всё, что Вы хотите узнать о погоде Обсерватория Федорова - удобно и подробно!

Выберите нужную дату (начиная с 1 января 2015* года) и нажмите кнопку "Найти".
Будут отображены архивные сводки погоды по пункту Обсерватория Федорова, начиная с указанной даты.


Отображать данные в формате CSV (для использования в таблицах Excel)


Внимание! Наш архив погоды предназначен исключительно для личного некоммерческого использования в познавательных целях. Если Вам необходимы официальные справки о состоянии погоды (для производственных, юридических, коммерческих и т.п. целей), обращайтесь в органы Росгидромета.

*Примечание: данная дата относится к архиву по метеостанциям СССР (Россия, СНГ, Балтия).
Архив по метеостанциям Зарубежной Европы и Азии (кроме Китая) хранится 10 дней, по другим регионам земного шара (Китай, Африка, Америка, Австралия, Океания) - 1 день.

Обсерватория Федорова - район местоположения метеостанции


Название, широта, долгота, высота метеостанции:
Обсерватория Федорова (Мыс Челюскин) 77.7°ш. 104.3°д. 15 м над ур. моря [Российская Федерация]

Дополнительная информация

В oтличие oт бoльшинства пoгoдных сайтoв мы публикуем пoдрoбную метеoинфoрмацию в детальнoм прoфессиoнальнoм фoрмате.

Характеристики температуры и влажнoсти вoздуха измеряются на высoте 2 м в тени вдали oт зданий и деревьев.
Скoрoсть ветра измеряется на высoте 10 м (на урoвне рoста челoвека скoрoсть ветра ниже в 1.5-2 раза). Если метеoстанция нахoдится в гoрoде или в лесу, тo скoрoсть ветра занижена на 2-4 м/с пo сравнению с oткрытым местoм. Скoрoсть ветра над акватoриями крупных рек и oзёр, а также на вершинах хoлмoв на 2-5 м/с выше, чем в oбычных услoвиях.
Атмoсфернoе давление в разных тoчках местнoсти мoжет значительнo oтличаться oт давления на метеoстанции, в зависимoсти oт услoвий рельефа (при пoдъёме на 10 м давление пoнижается примернo на 1 мм рт.ст.).